Missoula, Montana, United States (59801)
Lat: 46.87N, Lon: 113.99W
Wx Zone: MTZ005
Local Info
Past Weather Observations for Today

NOTE: This archive is for the closest National Weather Service station to Missoula. Information may differ from the station used for current weather conditions.

Click here for Long-term Archive

Time Weather Temperature Dewpoint Humidity Pressure Winds Precip Visibility
20:53
Clear
54°F / 12°C 30°F / -1°C 41% 30.04 in
(1017 mb)
N 6.9 mph
(N 11 kph)
- 10SM
19:53
Clear
61°F / 16°C 27°F / -3°C 27% 30.01 in
(1016 mb)
NNW 8.1 mph
(NNW 13 kph)
- 10SM
18:53
Clear
64°F / 18°C 27°F / -3°C 24% 30.01 in
(1016 mb)
NNW 6.9 mph
(NNW 11 kph)
- 10SM
17:53
Clear
70°F / 21°C 30°F / -1°C 23% 30.01 in
(1016 mb)
N 9.2 mph
(N 15 kph)
- 10SM
16:53
Clear
70°F / 21°C 30°F / -1°C 23% 30.01 in
(1016 mb)
Variable 5.8 mph
(Variable 9 kph)
- 10SM
15:53
Clear
70°F / 21°C 30°F / -1°C 23% 30.04 in
(1017 mb)
Variable 4.6 mph
(Variable 7 kph)
- 10SM
14:53
Clear
68°F / 20°C 28°F / -2°C 23% 30.06 in
(1018 mb)
Calm - 10SM
13:53
Clear
66°F / 19°C 30°F / -1°C 26% 30.09 in
(1019 mb)
SE 5.8 mph
(SE 9 kph)
- 10SM
12:53
Clear
63°F / 17°C 32°F / 0°C 32% 30.12 in
(1020 mb)
Variable 3.5 mph
(Variable 6 kph)
- 10SM
11:53
Clear
59°F / 15°C 32°F / 0°C 36% 30.18 in
(1022 mb)
Calm - 10SM
10:53
Clear
54°F / 12°C 30°F / -1°C 41% 30.21 in
(1023 mb)
Calm - 10SM
09:53
Clear
48°F / 9°C 30°F / -1°C 50% 30.24 in
(1024 mb)
SSE 3.5 mph
(SSE 6 kph)
- 10SM
08:53
Clear
43°F / 6°C 30°F / -1°C 61% 30.27 in
(1025 mb)
Calm - 10SM
07:53
Clear
39°F / 4°C 30°F / -1°C 70% 30.27 in
(1025 mb)
SSE 3.5 mph
(SSE 6 kph)
- 10SM
06:53
Clear
36°F / 2°C 28°F / -2°C 75% 30.27 in
(1025 mb)
SE 5.8 mph
(SE 9 kph)
- 10SM
05:53
Clear
28°F / -2°C 25°F / -4°C 86% 30.27 in
(1025 mb)
Calm - 10SM
04:53
Clear
30°F / -1°C 25°F / -4°C 80% 30.27 in
(1025 mb)
Calm - 10SM
03:53
Clear
34°F / 1°C 27°F / -3°C 75% 30.27 in
(1025 mb)
Calm - 10SM
02:53
Clear
34°F / 1°C 27°F / -3°C 75% 30.27 in
(1025 mb)
Calm - 10SM
01:53
Clear
36°F / 2°C 27°F / -3°C 70% 30.24 in
(1024 mb)
Calm - 10SM
00:53
Clear
37°F / 3°C 27°F / -3°C 65% 30.24 in
(1024 mb)
Calm - 10SM
Time Weather Temperature Dewpoint Humidity Pressure Winds Precip Visibility


Weather for websites

WeatherForYou.com, LLC is not responsible for any damages or problems caused by this service. Current weather conditions are obtained from the closest station including government and personal stations which may have varying degrees of accuracy. Weather forecasts are derived from the NOAA NDFD. Like all things, this site belongs to Jesus Christ... He just trusts me to maintain it. If you have any questions or comments email webmaster@weatherforyou.com

Copyright © 2015, WeatherForYou.com LLC. All rights reserved.